Погода в Нижнем Жириме

Россия / Республика Бурятия     51°25′25″N   107°11′54″E
темп.,
°C
ветер,
м/с
пор.,
м/с
влажн.,
%
обл.,
%
осадки,
мм/ч
давл.,
гПа
погр.,
м
16 мая, пн
пн1623:00+13юз2228100 0.0 100911
02:00+9ссз113791 0.0 100910
05:00+8сз11425 0.0 100810
08:00+14зсз1130100 0.0 1008243
11:00+19ссв1223100 0.0 1006668
14:00+20ссз61022100 0.0 10052607
17:00+21с7102239 0.0 10053077
20:00+15ссз35402 0.0 1007105
17 мая, вт
вт1723:00+10з1157100 0.0 100910
02:00+9юз2259100 0.0 101011
05:00+10зюз2255100 0.0 101018
08:00+15зсз4845100 0.0 1010626
11:00+15зсз6859100 0.1 10111123
14:00+16зсз796415 0.2 10111040
17:00+19сз584185 0.2 10092154
20:00+16з33505 0.2 101035
18 мая, ср
ср1823:00+12юз226381 0.0 101215
02:00+12юз22585 0.0 101221
05:00+9юз227012 0.0 101310
08:00+15з22485 0.0 1014274
11:00+21ссз462980 0.0 10132574
14:00+23ссз662794 0.0 10122774
17:00+23с662813 0.0 10112691
20:00+18ссв22422 0.0 101211
19 мая, чт
чт1923:00+13св11535 0.0 101311
02:00+11ююз00605 0.0 101410
05:00+10юз116969 0.0 101410
08:00+17юз124113 0.0 1014292
11:00+24зюз442876 0.0 10121597
14:00+27зсз3520100 0.0 10103599
17:00+26ссз562356 0.0 10102778
20:00+20с224041 0.0 101011
20 мая, пт
пт2023:00+15з11500 0.0 101111
02:00+14юз2257100 0.0 101111
05:00+12ююз1162100 0.0 101111
08:00+19с004590 0.0 1011255
11:00+24ссз123130 0.0 1010985
14:00+27всв252367 0.0 10082926
17:00+27с672252 0.1 10082999
20:00+22с2336100 0.1 100924